Location: Unspecified
(0.0000°N, 0.0000°E)
Time: 07:45:28
(UTC+00:00)

deb Explorer IX - Pass Details

Date: 22 December 2018
Orbit: 536 x 1117 km, 38.8° (Epoch: 17 March)

Event Time Altitude Azimuth Distance (km) Brightness Sun altitude
Rises 11:43:15 0° 230° (SW) 3,894 ? 66.3°
Reaches altitude 10° 11:46:07 10° 231° (SW) 2,892 ? 66.4°
Maximum altitude 11:53:13 84° 318° (NW) 987 ? 66.5°
Drops below altitude 10° 11:59:22 10° 46° (NE) 2,524 ? 66.6°
Enters shadow 12:20:54 -45° 52° (NE) 9,813 ? 65.9°
Exits shadow 12:54:18 -71° 217° (SW) 13,008 ? 62.9°
Sets 13:46:53 0° 14° (NNE) 3,224 ? 54.8°
